Keps
Threads by month
- ----- 2024 -----
- December
- November
- October
- September
- August
- July
- June
- May
- April
- March
- February
- January
- ----- 2023 -----
- December
- November
- October
- September
- August
- July
- June
- May
- April
- March
- February
- January
- ----- 2022 -----
- December
- November
- October
- September
- August
- July
- June
- May
- April
- March
- February
- January
- ----- 2021 -----
- December
- November
- October
- September
- August
- July
- June
- May
- April
- March
- February
- January
- ----- 2020 -----
- December
- November
- October
- September
- August
- July
- June
- May
- April
- March
- February
- January
- ----- 2019 -----
- December
- November
- October
- September
- August
- July
- June
- May
- April
- March
- February
- January
- ----- 2018 -----
- December
- November
- October
- September
- August
- July
- June
- May
- April
- March
- February
- January
- ----- 2017 -----
- December
- November
- October
- September
- August
- July
- June
- May
- April
- March
- February
- January
- ----- 2016 -----
- December
- November
- October
- September
- August
- July
- June
- May
- April
- March
- February
- January
- ----- 2015 -----
- December
- November
- October
- September
- August
- July
- June
- May
- April
- March
- February
- January
- ----- 2014 -----
- December
- November
- October
- September
- August
- July
- June
- May
- April
- March
- February
- January
- ----- 2013 -----
- December
- November
- October
- September
- August
- July
- June
- May
- April
- March
- February
- January
- ----- 2012 -----
- December
- November
- October
- September
- August
- July
- June
- May
- April
- March
- February
- January
- ----- 2011 -----
- December
- November
- October
- September
- August
- July
- June
- May
- April
- March
- February
- January
- ----- 2010 -----
- December
- November
- October
- September
- August
- July
- June
- May
- April
- March
- February
- January
- ----- 2009 -----
- December
- November
- October
- September
- August
- July
- June
- May
- April
- March
- February
- January
- ----- 2008 -----
- December
- November
- October
- September
- August
- July
- June
- May
- April
- March
- February
- January
- ----- 2007 -----
- December
- November
- October
- September
- August
- July
- June
- May
- April
- March
- February
- January
- ----- 2006 -----
- December
- November
- October
- September
October 2014
- 2 participants
- 12 discussions
SB KEPS @ AMSAT $ORB14275.N
2Line Orbital Elements 14275.AMSAT
HR AMSAT ORBITAL ELEMENTS FOR AMATEUR SATELLITES IN NASA FORMAT
FROM WA5QGD FORT WORTH,TX October 2, 2014
BID: ORB14275.N
DECODE 2-LINE ELSETS WITH THE FOLLOWING KEY:
1 AAAAAU 00 0 0 BBBBB.BBBBBBBB .CCCCCCCC 00000-0 00000-0 0 DDDZ
2 AAAAA EEE.EEEE FFF.FFFF GGGGGGG HHH.HHHH III.IIII JJ.JJJJJJJJKKKKKZ
KEY: A-CATALOGNUM B-EPOCHTIME C-DECAY D-ELSETNUM E-INCLINATION F-RAAN
G-ECCENTRICITY H-ARGPERIGEE I-MNANOM J-MNMOTION K-ORBITNUM Z-CHECKSUM
TO ALL RADIO AMATEURS BT
AO-07
1 07530U 74089B 14275.79317001 -.00000042 00000-0 10327-4 0 861
2 07530 101.4856 254.1303 0012373 084.8694 343.8550 12.53607701825000
FO-29
1 24278U 96046B 14275.82798888 .00000038 00000-0 74298-4 0 4906
2 24278 098.5153 274.8329 0350631 018.5340 098.5752 13.53031011895220
SO-33
1 25509U 98061B 14274.50017363 .00001429 00000-0 26918-3 0 8521
2 25509 031.4320 277.9738 0349099 325.8521 171.3077 14.29647676832370
RS-22
1 27939U 03042A 14275.78599515 .00001740 00000-0 33000-3 0 9178
2 27939 097.8182 084.6492 0013795 122.1657 238.0892 14.65369413588486
HO-68
1 36122U 09072B 14275.73504070 -.00000043 00000-0 00000 0 0 29
2 36122 100.2363 324.2751 0007683 351.7022 008.3946 13.16318520230587
AO-73
1 39444U 13066AE 14274.75009214 .00002707 00000-0 36540-3 0 2727
2 39444 097.7609 341.7395 0060162 256.8017 102.6549 14.78661388 45211
EO-79
1 40025U 14033R 14275.66686400 .00003388 00000-0 39793-3 0 3076
2 40025 097.9717 170.4823 0012507 313.7104 046.3137 14.85540574 15544
UO-11
1 14781U 84021B 14275.74581827 .00001095 00000-0 14530-3 0 6254
2 14781 097.8403 333.7139 0008968 181.7299 178.3885 14.81771731643891
AO-16
1 20439U 90005D 14275.81486594 .00000225 00000-0 99217-4 0 1393
2 20439 098.5141 211.1564 0010716 195.2271 218.4931 14.32396006289898
LO-19
1 20442U 90005G 14274.79752871 .00000225 00000-0 98653-4 0 748
2 20442 098.4849 210.4912 0011848 187.2913 172.8100 14.32595112289942
AO-27
1 22825U 93061C 14274.84351647 .00000204 00000-0 96940-4 0 7855
2 22825 098.6729 220.4055 0008013 353.1790 059.9191 14.29753141 96028
IO-26
1 22826U 93061D 14274.80604098 .00000229 00000-0 10591-3 0 5439
2 22826 098.6671 220.5709 0008409 344.8141 015.2787 14.30057252 96150
GO-32
1 25397U 98043D 14275.44341433 .00000111 00000-0 67502-4 0 4650
2 25397 098.4823 229.4967 0001565 048.8351 100.3411 14.23465871843126
NO-44
1 26931U 01043C 14275.81363531 .00000209 00000-0 11257-3 0 7200
2 26931 067.0502 120.9149 0007376 275.8062 084.2198 14.30157554678998
SO-50
1 27607U 02058C 14275.36029588 .00001923 00000-0 30460-3 0 5310
2 27607 064.5560 265.6022 0060524 342.1105 017.7864 14.73950943633275
CO-55
1 27844U 03031E 14275.25957413 .00000374 00000-0 19053-3 0 386
2 27844 098.6992 282.4958 0008881 331.2357 090.5441 14.21569648583798
CO-57
1 27848U 03031J 14275.51206279 .00000339 00000-0 17571-3 0 9817
2 27848 098.7086 282.5145 0008914 338.1608 148.1372 14.21248806583746
AO-51
1 28375U 04025K 14274.83074411 .00000514 00000-0 16499-3 0 9589
2 28375 098.2609 218.1603 0083507 030.9618 329.6457 14.41441128539274
CP3
1 31129U 07012N 14275.66458073 .00002299 00000-0 51118-3 0 8646
2 31129 097.9459 248.2782 0098946 036.9954 016.8270 14.54903261395664
CO-65
1 32785U 08021C 14275.13364222 .00002748 00000-0 32308-3 0 797
2 32785 097.6882 322.8634 0013682 190.9327 225.2255 14.85603559347908
PRISM
1 33493U 09002B 14275.88156220 .00006969 00000-0 72316-3 0 3596
2 33493 098.2531 096.1985 0018861 092.5280 267.8131 14.90168927308219
SOHLA-1
1 33496U 09002E 14274.93879016 .00000822 00000-0 14258-3 0 4784
2 33496 098.1829 036.2128 0005178 258.8488 239.7134 14.70916009305206
TISAT-1
1 36799U 10035E 14275.82944203 .00004383 00000-0 50485-3 0 6073
2 36799 098.0169 008.6625 0013642 336.6189 023.4407 14.86178109228702
STUDSAT
1 36801U 10035G 14275.84638120 .00019636 00000-0 16227-2 0 9016
2 36801 098.0370 018.9744 0007620 292.2200 179.6627 14.98964428229244
ALMASAT-1
1 38078U 12006B 14275.43696093 .00030343 33592-5 60613-3 0 1715
2 38078 069.4684 159.5351 0575622 249.0373 162.4823 14.55363539137213
XATCOBEO
1 38082U 12006F 14243.34478676 .13583328 43697-5 37939-3 0 5637
2 38082 069.3815 097.0364 0033293 225.1799 135.4582 16.41261006136239
CUBEBUG-1
1 39153U 13018D 14275.80938964 .00002402 00000-0 33932-3 0 5357
2 39153 098.0340 355.8728 0018446 007.7579 352.3912 14.77995990 77451
ESTCUBE-1
1 39161U 13021C 14275.76329840 .00001853 00000-0 31538-3 0 5351
2 39161 098.0904 355.8463 0011410 058.1270 302.1053 14.70218216 75408
DUCHIFAT-1
1 40021U 14033M 14275.65690682 .00004616 00000-0 53694-3 0 3136
2 40021 097.9707 170.5183 0013093 314.7348 045.2848 14.85751617 15539
NANOSATCBR1
1 40024U 14033Q 14275.66439183 .00004135 00000-0 48328-3 0 3041
2 40024 097.9670 170.4864 0011987 313.8412 046.1852 14.85616446 15533
DTUSAT-2
1 40030U 14033W 14275.69289422 .00003302 00000-0 39161-3 0 3006
2 40030 097.9662 170.4380 0010963 306.0747 053.9468 14.85164442 15546
ANTELSAT
1 40034U 14033AA 14275.71436560 .00002442 00000-0 39116-3 0 3105
2 40034 097.9683 168.2045 0060271 223.1980 136.4494 14.71453945 15417
MET-2/21
1 22782U 93055A 14275.59225036 .00000048 00000-0 30135-4 0 1882
2 22782 082.5463 088.0841 0021338 325.9838 099.0737 13.83745139 64970
OKEAN-4
1 23317U 94066A 14275.51046421 .00001398 00000-0 15756-3 0 6707
2 23317 082.5385 327.2999 0022119 104.3633 321.9346 14.85756219 79041
NOAA-14
1 23455U 94089A 14275.43207706 .00000072 00000-0 60572-4 0 9305
2 23455 098.7735 356.9375 0010541 095.8421 035.2021 14.13989001 19108
NOAA-15
1 25338U 98030A 14275.45021744 .00000229 00000-0 11583-3 0 3670
2 25338 098.7602 269.1420 0010592 190.8323 284.4135 14.25476800852124
RESURS
1 25394U 98043A 14275.83867535 .00000049 00000-0 39372-4 0 7754
2 25394 098.4273 235.7473 0000668 005.8748 050.7638 14.24402129843644
FENGYUN1
1 25730U 99025A 14275.82935411 .00002545 00000-0 14067-2 0 2645
2 25730 098.9189 236.3077 0022000 160.1529 255.9768 14.12171010792715
OKEAN-0
1 25860U 99039A 14275.80660986 .00001189 00000-0 18260-3 0 3794
2 25860 098.0571 239.1182 0001950 094.7597 323.7755 14.75427020818028
NOAA-16
1 26536U 00055A 14275.42786272 .00000161 00000-0 11073-3 0 8665
2 26536 098.9792 336.1955 0009875 237.2332 122.7889 14.13039182723259
NOAA-17
1 27453U 02032A 14275.43011323 .00000213 00000-0 10900-3 0 7564
2 27453 098.3208 269.5302 0011239 213.9325 146.1137 14.24784483637959
NOAA-18
1 28654U 05018A 14275.46102501 .00000216 00000-0 14313-3 0 2758
2 28654 099.1603 257.1767 0013621 326.5934 143.2743 14.12070305482703
NOAA-19
1 33591U 09005A 14275.51455721 .00000121 00000-0 90926-4 0 4117
2 33591 098.9550 220.2786 0014183 172.7450 302.8761 14.11773353291137
HUBBLE
1 20580U 90037B 14274.65593259 .00003766 00000-0 24151-3 0 1266
2 20580 028.4708 057.0573 0003092 351.9245 125.6004 15.05829872140781
ISS
1 25544U 98067A 14275.87220488 .00014712 00000-0 25769-3 0 1885
2 25544 051.6459 285.8227 0002253 135.6034 287.5785 15.50825866908038
CO-58
1 28895U 05043F 14275.80127473 .00001170 00000-0 24129-3 0 8882
2 28895 097.8272 112.0592 0017943 035.1621 325.0761 14.62059934475970
FALCON
1 30776U 07006E 14275.13890337 .00011030 00000-0 53626-3 0 9731
2 30776 035.4282 170.9805 0002051 219.2830 265.7190 15.17703417416986
MAST
1 31126U 07012K 14274.90696646 .00001555 00000-0 34810-3 0 1680
2 31126 097.9269 250.3085 0092203 022.4483 030.2794 14.55428297395918
CAPE1
1 31130U 07012P 14275.66410786 .00002136 00000-0 47787-3 0 1748
2 31130 097.9473 247.8178 0099554 038.4673 322.3567 14.54638991395431
